Volver al catálogo

SL-14 DEB

ActivoPO
NORAD 26006·DEBRIS·🇷🇺 Russia

Lanzado Sep 28, 1991 desde Plesetsk Cosmodrome

Loading…

Próximos Pases (próximas 24 horas)

TLE

ActualizadoSource: Space-Track

Época: Sep 14, 2026, 15:17 UTC

1 26006U 91068R   26257.63687447  .00000072  00000-0  33814-3 0  9996
2 26006  82.6124 323.2504 0092406 278.6730 237.4027 12.62640751240894

Sigue SL-14 DEB en tiempo real con AllMySat

Download on the App Store